FW9423 Weather Reports


time (UTC)temp
F
wind
direction
speed
knots
gust
knots
rain 1hr
in
rain 24hr
in
rain mn
in
humidity
%
barometer
mb
20260505214043 60 360 1.7 4.3 0.00 0.00 0.00 72 1027.5
20260505213540 60 360 2.6 5.2 0.00 0.00 0.00 72 1027.4
20260505213054 60 360 1.7 5.2 0.00 0.00 0.00 72 1027.3
20260505212542 60 360 2.6 5.2 0.00 0.00 0.00 72 1027.3
20260505212043 60 360 1.7 4.3 0.00 0.00 0.00 71 1027.1
20260505211605 60 360 1.7 4.3 0.00 0.00 0.00 71 1027.1
20260505211041 60 360 1.7 5.2 0.00 0.00 0.00 71 1027.1
20260505210543 60 360 2.6 5.2 0.00 0.00 0.00 71 1027.1
20260505210054 59 360 1.7 5.2 0.00 0.00 0.00 71 1027.1
20260505205543 59 360 2.6 7.0 0.00 0.00 0.00 71 1027.1
20260505205045 59 360 2.6 7.0 0.00 0.00 0.00 71 1027.0
20260505204552 59 360 2.6 3.5 0.00 0.00 0.00 71 1026.9
20260505204043 59 360 1.7 4.3 0.00 0.00 0.00 71 1026.9
20260505203543 59 360 1.7 4.3 0.00 0.00 0.00 70 1026.9
20260505203113 59 360 2.6 4.3 0.00 0.00 0.00 70 1026.9
20260505202542 58 360 1.7 4.3 0.00 0.00 0.00 70 1026.9
20260505202043 58 360 1.7 4.3 0.00 0.00 0.00 69 1026.9
20260505201555 58 360 1.7 3.5 0.00 0.00 0.00 68 1026.8
20260505201043 58 360 0.9 4.3 0.00 0.00 0.00 68 1026.7
20260505200543 59 360 0.9 4.3 0.00 0.00 0.00 67 1026.7
20260505200054 59 360 0.9 4.3 0.00 0.00 0.00 67 1026.7
20260505195540 59 360 1.7 4.3 0.00 0.00 0.00 67 1026.7
20260505195039 59 360 1.7 4.3 0.00 0.00 0.00 67 1026.7
20260505194548 59 360 1.7 4.3 0.00 0.00 0.00 67 1026.7
20260505194043 59 360 1.7 4.3 0.00 0.00 0.00 66 1026.7
20260505193542 60 360 1.7 4.3 0.00 0.00 0.00 66 1026.7
20260505193047 60 360 2.6 4.3 0.00 0.00 0.00 66 1026.7
20260505192545 60 360 1.7 4.3 0.00 0.00 0.00 65 1026.7
20260505192043 60 360 1.7 3.5 0.00 0.00 0.00 64 1026.7
20260505191551 60 360 1.7 3.5 0.00 0.00 0.00 65 1026.7
20260505191042 60 360 1.7 5.2 0.00 0.00 0.00 64 1026.7
20260505190543 60 360 1.7 5.2 0.00 0.00 0.00 64 1026.7
20260505190051 60 360 2.6 5.2 0.00 0.00 0.00 64 1026.6
20260505185543 60 360 2.6 5.2 0.00 0.00 0.00 63 1026.6
20260505185040 60 360 1.7 4.3 0.00 0.00 0.00 63 1026.6
20260505184551 60 360 1.7 4.3 0.00 0.00 0.00 62 1026.5
20260505184043 60 360 1.7 4.3 0.00 0.00 0.00 62 1026.5
20260505183540 60 360 1.7 4.3 0.00 0.00 0.00 61 1026.6
20260505183049 60 360 1.7 4.3 0.00 0.00 0.00 61 1026.4
20260505182546 60 360 1.7 4.3 0.00 0.00 0.00 60 1026.4
20260505182042 60 360 1.7 4.3 0.00 0.00 0.00 59 1026.5
20260505181550 60 360 1.7 4.3 0.00 0.00 0.00 59 1026.4
20260505181046 60 360 1.7 4.3 0.00 0.00 0.00 58 1026.5
20260505180548 60 360 1.7 4.3 0.00 0.00 0.00 58 1026.6
20260505180057 60 360 1.7 4.3 0.00 0.00 0.00 57 1026.6
20260505175543 60 360 2.6 4.3 0.00 0.00 0.00 57 1026.5
20260505175043 60 360 0.0 2.6 0.00 0.00 0.00 57 1026.6
20260505174548 60 0 0.0 2.6 0.00 0.00 0.00 55 1026.7
20260505174043 60 0 0.9 3.5 0.00 0.00 0.00 54 1026.7
20260505173542 60 360 1.7 3.5 0.00 0.00 0.00 54 1026.7
20260505173049 60 360 0.9 4.3 0.00 0.00 0.00 54 1026.6
20260505172539 60 360 1.7 4.3 0.00 0.00 0.00 54 1026.6
20260505172043 60 360 2.6 4.3 0.00 0.00 0.00 53 1026.5
20260505171549 60 360 1.7 3.5 0.00 0.00 0.00 53 1026.5
20260505171039 60 360 1.7 3.5 0.00 0.00 0.00 53 1026.4
20260505170541 60 360 1.7 3.5 0.00 0.00 0.00 53 1026.5
20260505170051 60 360 1.7 4.3 0.00 0.00 0.00 53 1026.5
20260505165545 60 360 1.7 4.3 0.00 0.00 0.00 53 1026.6
20260505165043 60 360 1.7 5.2 0.00 0.00 0.00 53 1026.6
20260505164553 59 360 2.6 5.2 0.00 0.00 0.00 54 1026.6
20260505164045 59 360 1.7 4.3 0.00 0.00 0.00 54 1026.6
20260505163545 59 360 1.7 4.3 0.00 0.00 0.00 54 1026.6
20260505163153 59 360 0.9 3.5 0.00 0.00 0.00 54 1026.4
20260505163049 59 360 0.9 3.5 0.00 0.00 0.00 54 1026.4
20260505162546 59 0 0.0 0.0 0.00 0.00 0.00 54 1026.4
20260505162043 59 0 0.0 0.0 0.00 0.00 0.00 54 1026.4
20260505161601 60 0 0.0 1.7 0.00 0.00 0.00 53 1026.4
20260505161043 60 0 0.0 3.5 0.00 0.00 0.00 53 1026.4
20260505160546 60 360 0.9 3.5 0.00 0.00 0.00 53 1026.3
20260505153053 61 360 0.0 1.7 0.00 0.00 0.00 52 1026.5
20260505152543 61 360 0.9 1.7 0.00 0.00 0.00 51 1026.6
20260505152042 61 360 0.9 1.7 0.00 0.00 0.00 51 1026.5
20260505151551 61 360 0.9 2.6 0.00 0.00 0.00 51 1026.4
20260505151043 61 360 0.9 2.6 0.00 0.00 0.00 51 1026.5
20260505150543 61 0 0.0 0.0 0.00 0.00 0.00 51 1026.5
20260505140542 63 360 1.7 7.0 0.00 0.00 0.00 47 1026.7
20260505140113 63 360 2.6 7.0 0.00 0.00 0.00 49 1026.7
20260505130103 63 360 2.6 5.2 0.00 0.00 0.00 53 1026.6
20260505124608 63 360 1.7 4.3 0.00 0.00 0.00 53 1026.6
20260505124041 63 360 2.6 5.2 0.00 0.00 0.00 53 1026.6
20260505123541 63 360 1.7 5.2 0.00 0.00 0.00 53 1026.4
20260505123108 63 360 2.6 5.2 0.00 0.00 0.00 53 1026.4
20260505122542 63 360 1.7 5.2 0.00 0.00 0.00 53 1026.4
20260505122044 63 360 2.6 5.2 0.00 0.00 0.00 53 1026.4
20260505121551 63 360 1.7 4.3 0.00 0.00 0.00 53 1026.4
20260505121040 63 360 1.7 4.3 0.00 0.00 0.00 53 1026.4
20260505120543 63 360 1.7 3.5 0.00 0.00 0.00 53 1026.4
20260505120105 63 360 0.9 4.3 0.00 0.00 0.00 52 1026.3
20260505115543 63 360 1.7 4.3 0.00 0.00 0.00 52 1026.3
20260505115045 63 360 1.7 4.3 0.00 0.00 0.00 52 1026.3
20260505114556 63 360 1.7 4.3 0.00 0.00 0.00 52 1026.2
20260505114042 63 360 1.7 3.5 0.00 0.00 0.00 52 1026.2
20260505113543 63 360 1.7 4.3 0.00 0.00 0.00 51 1026.3
20260505113100 63 360 1.7 4.3 0.00 0.00 0.00 51 1026.3
20260505112543 63 360 2.6 4.3 0.00 0.00 0.00 51 1026.2
20260505112042 63 360 2.6 4.3 0.00 0.00 0.00 51 1026.2
20260505111549 63 360 1.7 4.3 0.00 0.00 0.00 51 1026.1
20260505111045 63 360 1.7 5.2 0.00 0.00 0.00 51 1026.2
20260505110541 63 360 1.7 5.2 0.00 0.00 0.00 51 1026.1
20260505102043 64 360 2.6 5.2 0.00 0.00 0.00 49 1025.7
20260505101555 65 360 1.7 5.2 0.00 0.00 0.00 48 1025.8
20260505101042 65 360 2.6 7.0 0.00 0.00 0.00 47 1025.6
20260505100542 65 360 2.6 7.0 0.00 0.00 0.00 47 1025.6
20260505100050 65 360 2.6 4.3 0.00 0.00 0.00 47 1025.5
20260505095542 65 360 1.7 5.2 0.00 0.00 0.00 47 1025.5
20260505095043 66 360 1.7 7.0 0.00 0.00 0.00 46 1025.5
20260505094600 66 360 1.7 7.0 0.00 0.00 0.00 46 1025.5
20260505094042 66 360 3.5 7.0 0.00 0.00 0.00 46 1025.5
20260505093539 66 360 1.7 7.0 0.00 0.00 0.00 46 1025.4
20260505093055 66 360 3.5 7.8 0.00 0.00 0.00 46 1025.3
20260505092544 66 360 3.5 7.8 0.00 0.00 0.00 46 1025.4
20260505092046 66 360 2.6 7.8 0.00 0.00 0.00 47 1025.4
20260505091551 66 360 2.6 5.2 0.00 0.00 0.00 47 1025.3
20260505091042 66 360 2.6 4.3 0.00 0.00 0.00 46 1025.3
20260505090542 66 360 0.9 2.6 0.00 0.00 0.00 45 1025.4
20260505090057 66 360 0.0 3.5 0.00 0.00 0.00 45 1025.2
20260505085544 66 360 0.9 4.3 0.00 0.00 0.00 44 1025.2
20260505085045 66 360 1.7 4.3 0.00 0.00 0.00 44 1025.2
20260505084553 66 360 1.7 5.2 0.00 0.00 0.00 44 1025.2
20260505084042 67 360 2.6 5.2 0.00 0.00 0.00 44 1025.1
20260505083547 67 360 1.7 5.2 0.00 0.00 0.00 44 1025.1
20260505083106 66 360 2.6 5.2 0.00 0.00 0.00 44 1025.1
20260505082543 67 360 2.6 7.0 0.00 0.00 0.00 44 1025.0
20260505082040 67 360 3.5 9.6 0.00 0.00 0.00 43 1025.0
20260505081547 67 360 4.3 9.6 0.00 0.00 0.00 43 1025.0
20260505081040 67 360 2.6 10.4 0.00 0.00 0.00 43 1025.1
20260505080544 68 360 4.3 10.4 0.00 0.00 0.00 43 1024.9
20260505080054 68 360 3.5 7.8 0.00 0.00 0.00 43 1025.0
20260505075541 68 360 2.6 5.2 0.00 0.00 0.00 43 1024.9
20260505075042 68 360 2.6 9.6 0.00 0.00 0.00 43 1024.9
20260505074553 69 360 3.5 9.6 0.00 0.00 0.00 42 1025.1
20260505074043 68 360 0.9 5.2 0.00 0.00 0.00 43 1025.0
20260505073542 68 0 0.0 4.3 0.00 0.00 0.00 44 1025.1
20260505073056 68 360 1.7 4.3 0.00 0.00 0.00 44 1025.1
20260505072542 68 360 0.9 5.2 0.00 0.00 0.00 46 1025.1
20260505072042 68 0 0.9 5.2 0.00 0.00 0.00 45 1025.1
20260505071600 68 360 2.6 7.0 0.00 0.00 0.00 45 1025.1
20260505071039 68 360 2.6 7.0 0.00 0.00 0.00 45 1025.1
20260505070543 68 360 1.7 7.0 0.00 0.00 0.00 45 1025.0
20260505065544 68 360 2.6 9.6 0.00 0.00 0.00 46 1025.0
20260505065042 68 360 4.3 9.6 0.00 0.00 0.00 47 1025.0
20260505064556 68 360 3.5 9.6 0.00 0.00 0.00 47 1025.0
20260505064039 67 360 4.3 9.6 0.00 0.00 0.00 46 1025.0
20260505063541 68 360 1.7 7.8 0.00 0.00 0.00 45 1025.0
20260505063052 68 360 3.5 7.8 0.00 0.00 0.00 45 1025.0
20260505062541 68 360 1.7 7.8 0.00 0.00 0.00 45 1025.0
20260505062043 68 360 2.6 7.8 0.00 0.00 0.00 45 1025.0
20260505061632 68 360 2.6 7.8 0.00 0.00 0.00 46 1024.9
20260505061042 68 360 3.5 7.8 0.00 0.00 0.00 45 1025.0
20260505060542 69 92 1.7 6.1 0.00 0.00 0.00 44 1025.0
20260505060059 70 115 1.7 6.1 0.00 0.00 0.00 42 1025.0
20260505055540 70 0 0.9 6.1 0.00 0.00 0.00 43 1025.0
20260505055042 69 173 1.7 6.1 0.00 0.00 0.00 44 1024.9
20260505054555 68 0 0.9 7.0 0.00 0.00 0.00 46 1025.0
20260505054043 67 360 2.6 7.0 0.00 0.00 0.00 47 1025.0
20260505053542 67 360 2.6 7.0 0.00 0.00 0.00 47 1025.0
20260505053056 67 360 1.7 7.0 0.00 0.00 0.00 48 1025.0
20260505052700 67 360 2.6 7.0 0.00 0.00 0.00 48 1025.2
20260505052043 67 360 1.7 7.0 0.00 0.00 0.00 48 1025.2
20260505051547 67 360 2.6 7.0 0.00 0.00 0.00 48 1025.1
20260505051041 67 360 1.7 5.2 0.00 0.00 0.00 49 1025.2
20260505050543 67 360 2.6 8.7 0.00 0.00 0.00 48 1025.2
20260505041555 66 360 3.5 8.7 0.00 0.00 0.00 52 1025.5
20260505041046 67 360 2.6 7.8 0.00 0.00 0.00 52 1025.6
20260505040542 66 360 1.7 7.8 0.00 0.00 0.00 52 1025.7
20260505040100 67 360 3.5 7.8 0.00 0.00 0.00 50 1025.8
20260505035544 67 360 1.7 7.0 0.00 0.00 0.00 51 1025.8
20260505035041 66 360 2.6 10.4 0.00 0.00 0.00 51 1025.9
20260505034550 66 360 3.5 10.4 0.00 0.00 0.00 50 1026.0
20260505034040 67 360 2.6 8.7 0.00 0.00 0.00 50 1026.1
20260505033541 66 360 2.6 8.7 0.00 0.00 0.00 51 1026.1
20260505033059 66 360 3.5 8.7 0.00 0.00 0.00 52 1026.3
20260505032543 65 360 1.7 8.7 0.00 0.00 0.00 54 1026.2
20260505032043 65 360 3.5 8.7 0.00 0.00 0.00 54 1026.4
20260505031552 65 360 3.5 8.7 0.00 0.00 0.00 54 1026.4
20260505031039 65 360 2.6 8.7 0.00 0.00 0.00 55 1026.5
20260505030543 65 360 3.5 8.7 0.00 0.00 0.00 54 1026.7
20260505030051 65 360 4.3 7.8 0.00 0.00 0.00 53 1026.7
20260505025540 65 360 2.6 7.8 0.00 0.00 0.00 54 1026.8
20260505025047 64 360 3.5 9.6 0.00 0.00 0.00 55 1026.9
20260505024544 65 360 3.5 9.6 0.00 0.00 0.00 54 1026.8
20260505024039 66 360 3.5 7.8 0.00 0.00 0.00 54 1026.9
20260505023543 64 360 3.5 7.8 0.00 0.00 0.00 56 1026.9
20260505023051 63 360 2.6 7.8 0.00 0.00 0.00 58 1027.1
20260505022543 63 360 2.6 7.0 0.00 0.00 0.00 59 1027.2
20260505022042 63 360 2.6 7.8 0.00 0.00 0.00 59 1027.2
20260505021550 63 360 3.5 8.7 0.00 0.00 0.00 59 1027.2
20260505021044 64 360 4.3 8.7 0.00 0.00 0.00 59 1027.2
20260505020540 63 360 2.6 7.8 0.00 0.00 0.00 60 1027.3
20260505020050 63 360 3.5 7.8 0.00 0.00 0.00 61 1027.4
20260505015543 63 360 3.5 9.6 0.00 0.00 0.00 61 1027.4
20260505015044 63 360 4.3 9.6 0.00 0.00 0.00 61 1027.4
20260505014549 64 360 5.2 9.6 0.00 0.00 0.00 60 1027.4
20260505014043 64 360 3.5 7.8 0.00 0.00 0.00 61 1027.5
20260505013543 64 360 3.5 8.7 0.00 0.00 0.00 62 1027.6
20260505013049 63 360 4.3 8.7 0.00 0.00 0.00 62 1027.6
20260505012539 63 360 2.6 7.0 0.00 0.00 0.00 63 1027.7
20260505012044 63 360 2.6 7.0 0.00 0.00 0.00 63 1027.7
20260505011552 62 360 3.5 7.0 0.00 0.00 0.00 64 1027.6
20260505011043 62 360 3.5 7.0 0.00 0.00 0.00 64 1027.6
20260505010540 62 360 2.6 7.8 0.00 0.00 0.00 64 1027.7
20260505005541 62 360 3.5 7.8 0.00 0.00 0.00 65 1027.8
20260505005043 62 360 2.6 7.0 0.00 0.00 0.00 66 1028.0
20260505004550 61 360 3.5 7.0 0.00 0.00 0.00 66 1028.0
20260505004042 61 360 3.5 7.0 0.00 0.00 0.00 66 1028.0
20260505003545 61 360 2.6 7.0 0.00 0.00 0.00 67 1028.1
20260505003052 60 360 4.3 7.8 0.00 0.00 0.00 68 1028.1
20260505002540 60 360 3.5 7.8 0.00 0.00 0.00 68 1028.1
20260505002043 60 360 3.5 7.8 0.00 0.00 0.00 68 1028.1
20260505001547 60 360 2.6 7.0 0.00 0.00 0.00 69 1028.1
20260505001039 60 360 2.6 7.0 0.00 0.00 0.00 70 1028.0
20260505000542 59 360 2.6 7.0 0.00 0.00 0.00 70 1027.9
20260505000055 59 360 2.6 7.0 0.00 0.00 0.00 71 1027.8
20260504235540 58 360 2.6 7.0 0.00 0.00 0.00 72 1027.7
20260504235043 58 360 2.6 5.2 0.00 0.00 0.00 73 1027.7
20260504234603 57 360 2.6 5.2 0.00 0.00 0.00 74 1027.7
20260504234044 56 360 2.6 5.2 0.00 0.00 0.00 75 1027.6
20260504233540 56 360 2.6 5.2 0.00 0.00 0.00 75 1027.6
20260504233203 55 360 2.6 7.0 0.00 0.00 0.00 76 1027.5
20260504232541 55 360 2.6 7.0 0.00 0.00 0.00 77 1027.4
20260504232041 54 360 2.6 7.0 0.00 0.00 0.00 78 1027.4
20260504231553 54 360 2.6 5.2 0.00 0.00 0.00 78 1027.3
20260504231041 54 360 1.7 4.3 0.00 0.00 0.00 79 1027.3
20260504230543 53 360 1.7 7.0 0.00 0.00 0.00 79 1027.3
20260504230058 53 360 2.6 7.0 0.00 0.00 0.00 79 1027.2
20260504225544 53 360 2.6 7.0 0.00 0.00 0.00 80 1027.1
20260504225041 52 360 1.7 4.3 0.00 0.00 0.00 81 1027.1
20260504224556 51 360 1.7 4.3 0.00 0.00 0.00 82 1027.0
20260504224042 51 360 0.9 3.5 0.00 0.00 0.00 82 1027.0
20260504223542 50 360 0.9 3.5 0.00 0.00 0.00 82 1027.0
20260504223058 50 360 0.9 3.5 0.00 0.00 0.00 82 1027.0
20260504222542 50 360 1.7 2.6 0.00 0.00 0.00 82 1026.9
20260504222041 50 360 0.9 2.6 0.00 0.00 0.00 82 1026.8
20260504221549 50 360 0.0 0.0 0.00 0.00 0.00 82 1026.9
20260504221041 50 0 0.0 0.0 0.00 0.00 0.00 82 1026.8
20260504220541 50 0 0.0 0.0 0.00 0.00 0.00 82 1026.7
20260504220058 50 0 0.0 0.9 0.00 0.00 0.00 82 1026.6
20260504215543 50 0 0.0 0.9 0.00 0.00 0.00 81 1026.7
20260504215044 50 0 0.0 2.6 0.00 0.00 0.00 81 1026.7
20260504214551 50 0 0.0 2.6 0.00 0.00 0.00 81 1026.5